Weather past 2 weeks in Saipan, Northern Mariana Islands

Now
81 °F

Broken clouds.


Feels Like: 87 °F
Forecast: 75 / 83 °F
Wind: 10 mph from South

Location: Saipan International Airport

Current Time: Sep 17, 2014 at 12:28:23 PM

Latest Report: Sep 17, 2014 at 11:54 AM


Visibility: 10 mi

Pressure: 29.96 "Hg

Humidity: 86%

Dew point: 76 °F

Location of SaipanLocation

Historic Weather in Saipan — Graph

°F

Saipan temperature yesterday

Maximum temperature yesterday: 85 °F (at 11:54 AM)
Minimum temperature yesterday: 73 °F (at 10:02 PM)
Average temperature yesterday: 79 °F

Past Weeks' High & Low Weather Summary

 TemperatureHumidityPressure
High90 °F (Sep 5, 12:54 PM)100% (Sep 10, 6:47 AM)29.98 "Hg (Sep 10, 6:47 AM)
Low73 °F (Sep 10, 6:47 AM)61% (Sep 2, 10:54 AM)29.72 "Hg (Sep 15, 4:38 PM)
Average82 °F84%29.88 "Hg
* Reported Sep 2 10:54 AM — Sep 17 10:54 AM, Saipan, Weather by CustomWeather, © 2014

Note: Actual official high and low records may vary slightly from our data, if they occured in-between our weather recording intervals... More about our weather records

Advertising

Saipan weather history for previous 24 hours

 ConditionsComfort  
Time TempWeatherWind HumidityBarometerVisibility
10:54 AM
Sep 17
81 °FPartly sunny.12 mph86%29.98 "Hg10 mi
9:54 AM79 °FBroken clouds.8 mph85%29.97 "Hg10 mi
8:54 AM77 °FPassing clouds.9 mph94%29.96 "Hg10 mi
7:54 AM77 °FLight rain. Sunny.6 mph88%29.96 "Hg10 mi
6:54 AM75 °FLight rain. Sunny.3 mph99%29.93 "Hg10 mi
5:54 AM75 °FLight rain. Passing clouds.3 mph99%29.92 "Hg10 mi
4:54 AM75 °FHeavy rain. Fog.5 mph99%29.95 "Hg4 mi
3:54 AM75 °FLight rain. Passing clouds.6 mph96%29.92 "Hg10 mi
2:54 AM75 °FPassing clouds.9 mph96%29.91 "Hg10 mi
1:54 AM75 °FLight rain. Passing clouds.16 mph99%29.89 "Hg9 mi
1:01 AM75 °FLight rain. Fog.8 mph100%29.84 "Hg6 mi
12:54 AM75 °FLight rain. Fog.6 mph96%29.91 "Hg6 mi
11:54 PM
Sep 16
75 °FLight rain. Passing clouds.No wind96%29.91 "Hg9 mi
10:54 PM74 °FLight rain. Passing clouds.9 mph97%29.92 "Hg10 mi
10:14 PM73 °FHeavy rain. Fog.7 mph100%29.86 "Hg3 mi
10:02 PM73 °FHeavy rain. Fog.7 mph100%29.88 "Hg1 mi
9:54 PM74 °FHeavy rain. Fog.8 mph97%29.94 "Hg6 mi
8:54 PM80 °FPassing clouds.5 mph85%29.90 "Hg10 mi
7:54 PM81 °FPartly cloudy.5 mph79%29.89 "Hg10 mi
6:54 PM81 °FPassing clouds.9 mph82%29.87 "Hg10 mi
5:54 PM80 °FPassing clouds.10 mph87%29.81 "Hg10 mi
4:54 PM81 °FBroken clouds.10 mph88%29.80 "Hg10 mi
3:54 PM78 °FHeavy rain. Fog.16 mph93%29.81 "Hg3 mi
3:16 PM81 °FRain. Fog.13 mph89%29.75 "Hg4 mi
2:54 PM83 °FBroken clouds.13 mph82%29.81 "Hg10 mi
1:54 PM82 °FPassing clouds.12 mph88%29.81 "Hg10 mi
1:10 PM79 °FLight rain. Mostly cloudy.6 mph89%29.75 "Hg7 mi
12:54 PM79 °FHeavy rain. Fog.14 mph90%29.83 "Hg2 mi
Weather by CustomWeather, © 2014

See weather overviewHow to use our weather pages